363  
ASUS46 KPDT 312325  
RWRPDT  
PENDLETON REGIONAL WEATHER ROUNDUP  
NATIONAL WEATHER SERVICE PENDLETON OREGON  
300 PM PST SAT JAN 31 2015  
 
NOTE: FAIR INDICATES FEW OR NO CLOUDS BELOW 12,000 FEET WITH NO  
SIGNIFICANT WEATHER AND/OR S TO VISIBILITY
.  
 
# INDICATES UNOFFICIAL STATION AND DATA  
 
WAZ520-010010-  
EAST SLOPES OF WASHINGTON CASCADES  
 
CITY SKY/WX TMP DP RH WIND PRES REMARKS
 
#BUMPING DAM N/A 42 N/A N/A E3 N/A  
#CLE ELUM HS N/A 33 30 89 S2 30.21F  
#CLE ELUM LAKE N/A 31 30 96 CALM 30.33F  
#CLIFFDEL 2NW N/A 39 31 73 S1 N/A  
#GLENWOOD N/A 34 32 92 CALM 30.33F  
#MANASTASH CYN N/A 32 28 85 N1 30.18F  
#NELSON N/A 33 31 92 CALM 30.35F  
#NELSON 3SW N/A 30 29 96 CALM 30.56F  
#NILE N/A 34 32 92 E1 29.57S  
#RONALD 2NW N/A 33 24 69 CALM 30.07F  
#TEANAWAY 4NE N/A 34 33 96 CALM N/A  
#TROUT LAKE 1NE N/A 34 32 92 CALM 30.33F  

 
 
WAZ521-010010-  
SIMCOE HIGHLANDS  
 
CITY SKY/WX TMP DP RH WIND PRES REMARKS
 
#BICKLETON HS N/A 31 31 100 CALM N/A  
#CENTERVILLE 4W N/A 34 33 96 SE3 30.01F  
#CENTERVILLE 1SWN/A 32 29 89 CALM 30.32F  
#GOLDENDALE N/A 34 32 92 CALM N/A  
#GOLDENDALE 1NE N/A 34 28 78 CALM N/A  
#GOLDENDALE 1S N/A 31 31 100 CALM 30.24F  
#GOLDENDALE 5WNWN/A 34 31 89 CALM 30.33F  
#GOODNOE HILLS N/A 36 30 79 E6 N/A  
#LYLE 6NE N/A 34 32 92 CALM 30.31F  

 
 
WAZ026-010010-  
KITTITAS VALLEY  
 
CITY SKY/WX TMP DP RH WIND PRES REMARKS
 
ELLENSBURG AP CLOUDY 37 30 75 CALM 30.28S  
#ELLENSBURG CWU N/A 36 32 85 CALM 30.28F  
#ELLENSBURG 3NE N/A 34 31 89 CALM 30.27F  
#ELLENSBURG 1E N/A 36 30 79 CALM N/A  
#KITTITAS 4N N/A 37 33 85 S1 28.57F  
#KITTITAS 3S N/A 36 32 85 CALM 30.32F  
#THORP 6N N/A 31 31 100 E3 30.37F  

 
 
WAZ027-010010-  
YAKIMA VALLEY  
 
CITY SKY/WX TMP DP RH WIND PRES REMARKS
 
SUNNYSIDE AP CLOUDY 37 32 82 CALM 30.34R  
YAKIMA AIRPORT CLOUDY 38 31 76 CALM 30.31F  
YAKIMA-VAGABOND CLOUDY 37 32 82 W5 30.29F  
#DONALD 2NE N/A 37 29 72 CALM 29.16F  
#MABTON N/A 39 35 85 CALM 30.34S  
#MOXEE 2E N/A 37 28 70 S3 30.25F  
#NACHES 2SW N/A 36 34 92 CALM 30.28S  
#OUTLOOK DOT N/A N/A N/A N/A W1 N/A  
#SELAH 8E N/A 35 33 92 CALM N/A  
#TERRACE HTS N/A 37 34 89 CALM 30.32F  
#TOPPENISH N/A 38 33 82 CALM 30.28F  
#WAPATO 4NE N/A 37 29 72 CALM 29.16F  
#WEST VALLEY N/A 36 32 85 CALM 30.34F  
#W YAKIMA N/A 36 32 85 S1 30.36F  
#WHITE SWAN 5E N/A 38 33 82 E1 30.36F  
#WILEY CITY 3W N/A 35 27 72 CALM 30.31F  

 
 
WAZ028-010010-  
LOWER COLUMBIA BASIN...WASHINGTON  
 
CITY SKY/WX TMP DP RH WIND PRES REMARKS
 
HANFORD CLOUDY 38 31 76 S2 30.34F  
PASCO CLOUDY 41 33 73 E6 30.35F  
PROSSER AWOS N/A 39 34 82 NE5 30.37S  
#BASIN CITY 5SW N/A 40 34 79 CALM 30.34F  
#BENTON CITY N/A 37 33 85 N3 30.27F  
#CONNELL 5N N/A 37 32 82 CALM 30.37S  
#CONNELL 5NW N/A 37 32 82 CALM 30.31F  
#ELTOPIA 6NW N/A 37 33 85 E3 29.28F  
#KAHLOTUS N/A 36 32 85 CALM 30.37S  
#KENNEWICK 3S N/A 37 34 89 CALM 30.36F  
#PATERSON N/A 39 34 82 N3 30.33F  
#PROSSER N/A 37 31 79 N1 30.37S  
#SAGEMOOR 2W N/A 40 35 82 NE1 30.20F  
#TOUCHET 2S N/A 38 34 85 N1 30.35S  
#WEST PASCO N/A 41 34 76 N1 30.32F  

 
 
WAZ029-010010-  
FOOTHILLS OF THE BLUES...WASHINGTON  
 
CITY SKY/WX TMP DP RH WIND PRES REMARKS
 
WALLA WALLA AP CLOUDY 38 32 79 NE3 30.31S  
#DAYTON SCHOOL N/A 36 27 69 CALM 30.30R  
#LOWDEN 2SE N/A 39 34 82 CALM 30.30F  
#PLEASANT VIEW 1N/A 33 31 92 CALM 30.42S  
#PRESCOTT N/A 38 34 85 CALM 30.35S  
#SUDBURY N/A 41 N/A N/A CALM N/A  
#WHITMAN COLLEGEN/A 37 33 85 NW3 30.41R  
#WAITSBURG 5S N/A 34 32 92 NW3 30.47R  
#WAITSBURG 8N N/A 36 21 54 NW5 30.15S  
#WALLA WALLA 5E N/A 37 34 89 CALM N/A  
#WALLA WALLA U N/A 38 34 85 CALM 30.36F  
#WHITMAN MISSIONN/A 39 34 82 CALM 30.36F  

 
 
WAZ030-010010-  
BLUE MOUNTAINS...WASHINGTON  
 
CITY SKY/WX TMP DP RH WIND PRES REMARKS
 
#DIXIE 5SE N/A 29 29 100 CALM 30.16S  
#SKI BLUEWOOD N/A 39 24 54 S1 30.15S  

 
 
ORZ009-041-WAZ024-010010-  
COLUMBIA RIVER GORGE  
 
CITY SKY/WX TMP DP RH WIND PRES REMARKS
 
HOOD RIVER AP CLOUDY 39 32 76 NE6 30.32  
THE DALLES AP CLOUDY 41 33 73 E10 30.33F  
#ARLINGTON AIRPON/A 36 33 89 E1 30.02S  
#ARLINGTON HS N/A 39 33 79 E1 30.29F  
#CELILO DOT N/A 41 29 62 NE2 N/A  
#LYLE N/A 42 36 79 E1 30.35F  
#MOSIER 1S N/A 38 29 70 CALM 30.29F  
#MURDOCK N/A 42 37 82 E1 30.36F  
#RUFUS DOT N/A N/A N/A N/A CALM N/A  
 

 
 
ORZ510-010010-  
NORTH CENTRAL OREGON  
 
CITY SKY/WX TMP DP RH WIND PRES REMARKS
 
#CHENOWITH 1W N/A 33 33 100 E12 N/A WCI 24  
#COW CYN RST AREN/A 34 34 100 N3 N/A  
#DUFUR 9E N/A 31 31 100 CALM 30.39F  
#GRASS VALLEY 1SN/A 32 31 96 CALM 30.36F  
#KENT DOT N/A 32 28 85 NE7 N/A  
#MAUPIN SCHOOL N/A 39 33 79 N1 30.29F  
#MORO SCHOOL N/A 33 33 100 E2 30.27F  
#SHANIKO 5WSW N/A 32 29 89 NE6 N/A  
#SHANIKO 4NW N/A 32 32 100 E8 30.17F  
#TYGH VALLEY 2NEN/A 38 33 82 N2 30.32F  
#WAPANITIA AIRPON/A 34 32 92 NE1 30.34F  
#WASCO DOT N/A 37 30 75 E8 N/A  
#WASCO AIRPORT N/A 35 31 85 E5 N/A  
#WASCO 5NE N/A 34 32 92 E2 30.35F  

 
 
ORZ511-010010-  
CENTRAL OREGON  
 
CITY SKY/WX TMP DP RH WIND PRES REMARKS
 
BEND AIRPORT PTCLDY N/A N/A N/A N5 30.17F  
PRINEVILLE AP PTCLDY 41 34 76 W8 30.17F  
REDMOND AIRPORT PTCLDY 38 31 76 NW6 30.18F  
#BEND 1SW N/A 44 34 68 N1 N/A  
#BEND-AWBREY N/A 41 34 76 CALM 30.26F  
#BEND-KIM LN N/A 43 35 73 CALM 30.14F  
#CROOKED RVR RANN/A 33 31 92 NE5 30.30F  
#CULVER N/A 33 30 89 CALM 30.17F  
#LAKE BILLY CHINN/A 36 22 56 N3 30.28F  
#POWELL BUTTE 3EN/A 43 34 70 NW6 N/A  
#POWELL BUTTE N/A 44 35 70 N1 29.79F  
#PRINEVILLE 3N N/A 43 35 73 W1 30.20F  
#WARM SPRINGS N/A 40 33 76 SW1 30.22F  
 

 
 
 
ORZ509-010010-  
EAST SLOPES OF OREGON CASCADES  
 
CITY SKY/WX TMP DP RH WIND PRES REMARKS
 
#BLUE BOX PASS N/A 33 -16 11 S2 N/A  
#CAMP SHERMAN N/A 47 34 60 CALM 30.25F  
#LA PINE DOT N/A 50 18 28 CALM N/A  
#LA PINE 4NW N/A 51 30 44 CALM 30.30F  
#LAVA BUTTE DOT N/A 48 24 39 CALM N/A  
#MT BACHELOR-MIDN/A 40 15 36 CALM N/A  
#SISTERS AIRPOR N/A 39 36 89 N1 30.17S  
#SISTERS ODOT N/A 40 N/A N/A NW2 N/A  
#SISTERS 1NW N/A 41 30 65 NE7 N/A  
#SISTERS 3N N/A 39 29 67 CALM 30.19S  
#SUNRIVER N/A 49 29 46 CALM 30.14F  
#TUMALO 3W N/A 37 31 79 N3 30.16F  
#WANOGA BUTTE D N/A 44 16 32 W7 N/A  
 

 
 
ORZ044-010010-  
LOWER COLUMBIA BASIN...OREGON  
 
CITY SKY/WX TMP DP RH WIND PRES REMARKS
 
HERMISTON CLOUDY 40 33 76 N6 30.33F  
#BOARDMAN SCHOOLN/A 40 32 73 CALM 30.36S  
#BOARDMAN 8SW N/A 39 34 82 N1 30.35F  
#ECHO 8SW N/A 38 37 96 CALM 30.29F  
#IONE SCHOOL N/A 37 25 61 CALM 30.28F  
#IRRIGON 4NW N/A 41 36 82 NE3 N/A  
#UMATILLA SCHOOLN/A 38 36 92 NE1 30.35F  
#UMATILLA N/A 41 33 73 N1 30.31F  

 
 
ORZ507-010010-  
NORTHERN FOOTHILLS OF THE BLUES  
 
CITY SKY/WX TMP DP RH WIND PRES REMARKS
 
PENDLETON AIRPT CLOUDY 36 30 79 CALM 30.28S  
#ADAMS 3WNW N/A 34 31 89 N2 30.35S  
#ATHENA N/A 34 31 89 CALM 30.37F  
#CAYUSE N/A 36 32 85 N3 30.34F  
#HELIX SCHOOL N/A 34 32 92 E1 30.35S  
#HELIX 3N N/A 33 32 96 NE2 30.22F  
#HELIX 6SW N/A 35 32 89 CALM 30.26F  
#HOLDMAN 5SE N/A 37 34 89 CALM 30.28F  
#HOLDMAN 6E N/A 35 33 92 CALM 30.15F  
#M-F FERNDALE N/A 38 31 76 CALM 30.31S  
#M-F GROVE ELEM N/A 36 29 75 CALM 30.29S  
#M-FREEWATER 5SEN/A 36 32 85 CALM 30.29R  
#PENDLETON DNTN N/A 39 32 76 E1 29.08F  
#PDT AQUATIC CTRN/A 39 34 82 CALM 30.31S  
#PENDLETON 5NE N/A 36 33 89 NE1 30.24S  
#PDT SUNRIDGE N/A 37 32 82 CALM 30.32S  
#PENDLETON 7NW N/A 37 31 79 CALM 26.99R  
#TUTUILLA N/A 37 32 82 N1 30.33R  
#UMAPINE 2E N/A 38 33 82 CALM 30.30S  
#WESTON SCHOOL N/A 34 28 78 E1 30.26S  
 

 
 
ORZ508-010010-  
SOUTHERN FOOTHILLS OF THE BLUES  
 
CITY SKY/WX TMP DP RH WIND PRES REMARKS
 
LEXINGTON CLOUDY 36 36 100 N6 30.29S  
#AJAX N/A 32 27 82 N8 30.16F  
#CONDON SCHOOL N/A 31 30 96 CALM 30.16F  
#CONDON 5W N/A 29 28 96 CALM 30.16F  
#FOSSIL SCHOOL N/A 36 32 85 NW9 30.18R  
#HEPPNER EOC N/A 35 32 89 W1 30.29F  
#HEPPNER 4NE N/A 31 30 96 CALM 30.35S  
#LEXINGTON 2SE N/A 38 34 85 N6 30.23F  
#MIKKALO N/A 35 34 96 E5 30.26F  
#OLEX 4N N/A 36 34 92 E6 30.29F  
#RUGGS 5NE N/A 32 26 78 N1 30.40S  
#RUGGS 2SW N/A 31 30 96 N1 30.38S  
 

 
 
ORZ502-503-010010-  
BLUE MOUNTAINS  
 
CITY SKY/WX TMP DP RH WIND PRES REMARKS
 
MEACHAM SUNNY 39 28 64 CALM 30.17F  
#BATTLE MTN DOT N/A 36 36 100 S1 N/A  
#HARDMAN 10S N/A 43 37 79 CALM 30.41S  
#HEPPNER 15SE N/A 34 31 89 CALM 30.09R  
#LADD CYN SMT N/A 45 18 33 NW7 N/A  
#LADD CREEK ODOTN/A 45 27 49 NE3 N/A  
#LONG CREEK HS N/A 41 37 86 CALM 30.14S  
#N POWDER DOT N/A 48 27 44 CALM N/A  
#PIKES PEAK N/A 27 25 92 CALM 27.99S  
#TOLLGATE N/A 39 26 59 SW1 30.07S  
#TROY SCHOOL N/A 40 33 76 N1 30.16F  
#UKIAH N/A 41 33 73 CALM 30.32F  
#WESTON 4E N/A 29 28 96 CALM 30.31F  

 
 
ORZ505-010010-  
JOHN DAY BASIN  
 
CITY SKY/WX TMP DP RH WIND PRES REMARKS
 
JOHN DAY SUNNY 42 31 65 CALM 30.19S  
#DAYVILLE SCHOOLN/A 44 31 60 CALM 30.16S  
#MITCHELL N/A 44 36 73 CALM 30.32R  
#MONUMENT HS N/A 42 30 62 N1 30.22F  
#MT. VERNON 5SE N/A 39 32 76 CALM 30.12F  
#WINLOCK N/A 46 32 58 W3 30.26S  

 
 
ORZ506-010010-  
OCHOCO AND JOHN DAY HIGHLANDS  
 
CITY SKY/WX TMP DP RH WIND PRES REMARKS
 
#BUCK CREEK DOT N/A 51 51 100 W6 N/A  
#HORSE RIDGE DO N/A 48 27 44 N7 N/A  
#KEYES SMT DOT N/A 42 32 67 NW7 N/A  
#PAULINA SCHOOL N/A 46 33 60 CALM 30.13S  
#PINE MTN OBS N/A 44 23 43 S3 N/A  
#PRAIRIE CITY N/A 42 28 57 SW1 30.25F  
#SENECA N/A 46 N/A N/A W3 N/A  
#SENECA 9NW N/A 49 25 39 CALM 30.29F  

 
 
ORZ049-010010-  
GRANDE RONDE VALLEY  
 
CITY SKY/WX TMP DP RH WIND PRES REMARKS
 
LA GRANDE SUNNY 46 28 49 CALM 30.17F  
#COVE N/A 43 37 79 SE1 30.03S  
#COVE SCHOOL N/A 43 32 65 CALM 30.14F  
#COVE 6NW N/A 44 31 60 CALM 30.34F  
#ELGIN 3N N/A 52 26 36 CALM 29.96F  
#ELGIN 1E N/A 50 34 54 CALM N/A  
#IMBLER SCHOOL N/A 42 32 67 CALM 30.12F  
#ISLAND CITY 4N N/A 51 44 77 CALM 30.14F  
#LADD CYN DOT N/A 47 27 45 CALM N/A  
#UNION 1S N/A 45 32 60 CALM 30.20F  

 
 
ORZ050-010010-  
WALLOWA COUNTY  
 
CITY SKY/WX TMP DP RH WIND PRES REMARKS
 
#ENTERPRISE AP N/A 46 22 38 CALM 30.08F  
#ENTERPRISE HS N/A 48 29 47 CALM 30.14F  
#IMNAHA SCHOOL N/A 39 33 79 N8 30.22F  
#IMNAHA 10S N/A 39 31 73 NE3 30.17F  
#JOSEPH 3N N/A 44 33 65 CALM 30.16F  
#JOSEPH 3W N/A 35 20 54 SW2 29.98F  
#LOSTINE N/A 49 34 56 CALM 30.07F  
#MT HOWARD 8000 N/A 29 8 40 W3 30.12F  
#PROMISE 1S N/A 33 32 96 W1 30.41S  
#SHEEP RDG 7000 N/A 32 9 37 CALM 30.21F  
#WALLOWA SCHOOL N/A 47 32 56 CALM 31.26F  
 

 
 
CLICK HERE TO GO TO PREVIOUS BULLETINS.

The Nexlab OR Page
The Nexlab WA Page Main Text Page